Location: Kam�li
(14.6864°N, 3.1482°W)
Time: 02:26:47
(UTC+00:00)

GPS 2-14 Rocket1 - Pass Details

Date: 29 October 2020
Orbit: 475 x 540 km, 20.7° (Epoch: 02 December)

Event Time Altitude Azimuth Distance (km) Brightness Sun altitude
Rises 19:11:34 0° 279° (W) 2,674 7.6 -21.3°
Reaches altitude 10° 19:13:54 10° 272° (W) 1,785 6.5 -21.9°
Maximum altitude 19:17:53 44° 200° (SSW) 740 3.6 -22.8°
Enters shadow 19:18:31 41° 173° (S) 783 3.5 -23.0°
